{"data":{"norad_id":57964,"intl_designator":"2023-151A","name":"STARLINK-30396","alt_names":[],"object_type":"PAYLOAD","status":"ACTIVE","operator":null,"country":"US","launch_date":"2023-09-30","launch_site_code":"AFETR","launch_vehicle":null,"mission":null,"orbit_class":"UNKNOWN","rcs_meters":null,"size_class":null,"mass_kg":null,"dimensions":null,"purposes":["comms"],"wikipedia_slug":null,"has_3d_model":false,"image_url":null,"decayed_at":null,"tle_current":{"epoch":"2026-09-20T20:57:21.615840Z","epoch_age_seconds":105418,"freshness":"FRESH","line1":"1 57964U 23151A   26263.87316685  .00000327  00000+0  21396-4 0  9992","line2":"2 57964  43.0042 314.0230 0001333 252.3816 107.6890 15.27576571165612","mean_motion":15.27576571,"eccentricity":0.0001333,"inclination_deg":43.0042,"raan_deg":314.023,"arg_perigee_deg":252.3816,"mean_anomaly_deg":107.689,"bstar":2.1396e-5,"rev_number":16561,"period_min":94.266960317238,"perigee_km":482.14476624315,"apogee_km":483.97396119372,"semimajor_km":6861.1963637184,"source":"CELESTRAK","updated_at":"2026-09-21T09:00:33.748497Z"}}}